KURESSAARE current weather conditions

sailwx.info

Wind from 210 at 10 knots

Air temperature 5.0° C
Visibility: greater than 0.6 NM
Dewpoint 5.0° C
Present weather: Light drizzle. Mist.

Last reported at 2014-Dec-19 05:50 UTC.
Time now 2014-Dec-19 08:02 UTC

Location: N 58°14' E 022°31'.
View on Google Maps.

See reports from other nearby stations

  
Tides and Currents Weather Stations Pressure Air Temp Water Temp Dewpoint Dewpoint Depression Visibility Wind Speed Wind Dir Waves Ship Positions
date/time (UTC)wind fromknots sea level pressurealtimeterstation pressurevisibilityair tempwater tempwave heightnotes
2014-Dec-19 05:50 210 10 0.6 5.0 Light drizzle. Mist.
2014-Dec-19 04:50 200 7 0.4 5.0 Light drizzle rain. Fog.
2014-Dec-19 03:50 200 10 0.7 5.0 Fog.
2014-Dec-19 02:50 200 10 5.4 5.0
2014-Dec-19 01:50 190 14 3.2 5.0
2014-Dec-19 00:50 190 13 5.4 5.0 Drizzle.
2014-Dec-18 23:50 190 15 5.4 5.0 Light rain.
2014-Dec-18 22:50 190 17 5.4 5.0 Light rain.
2014-Dec-18 21:50 200 14 5.4 5.0 Light rain.
2014-Dec-18 20:50 200 14 2.7 4.0 Rain.
2014-Dec-18 19:50 210 13 5.4 5.0
2014-Dec-18 18:50 210 13 5.4 5.0
2014-Dec-18 17:50 200 13 4.3 4.0
2014-Dec-18 16:50 210 11 3.2 4.0 Light rain.
2014-Dec-18 15:50 210 13 2.7 4.0 Light rain mist.
2014-Dec-18 14:50 210 14 5.4 4.0 Light rain.
2014-Dec-18 13:50 210 12 4.9 4.0 Light rain.
2014-Dec-18 12:50 200 12 5.4 3.0
2014-Dec-18 11:50 190 11 5.4 3.0
2014-Dec-18 10:50 190 11 5.4 3.0
2014-Dec-18 09:50 210 6 5.4 3.0
2014-Dec-18 08:50 230 7 5.4 3.0
2014-Dec-18 07:50 260 4 5.4 2.0
2014-Dec-18 06:50 240 4 5.4 2.0
2014-Dec-18 05:50 270 5 5.4 2.0
2014-Dec-18 04:50 270 5 5.4 2.0
2014-Dec-18 03:50 280 3 5.4 1.0
2014-Dec-18 02:50 290 5 5.4 1.0
2014-Dec-18 01:50 290 6 5.4 1.0 Light rain.
2014-Dec-18 00:50 270 4 5.4 1.0
2014-Dec-17 23:50 270 3 5.4 1.0
2014-Dec-17 22:50 300 6 5.4 1.0
2014-Dec-17 21:50 280 4 5.4 2.0
2014-Dec-17 20:50 290 4 5.4 1.0
2014-Dec-17 19:50 280 4 5.4 2.0 Light rain.
2014-Dec-17 18:50 290 5 5.4 3.0 Rain.
2014-Dec-17 17:50 210 6 5.4 3.0
2014-Dec-17 16:50 210 5 5.4 2.0
2014-Dec-17 15:50 240 5 3.2 3.0 Light rain.
2014-Dec-17 14:50 200 9 5.4 3.0
2014-Dec-17 13:50 210 9 5.4 3.0
2014-Dec-17 12:50 210 10 5.4 3.0
2014-Dec-17 11:50 210 9 5.4 3.0
2014-Dec-17 09:50 200 10 5.4 2.0 Showers in the vicinity.
2014-Dec-17 08:50 220 4 5.4 2.0 Showers in the vicinity.